SCP
0 0 0 0 0 0 0 0 0 0 0 0 0 0 0 0 0 0 0 -0 -0 -0 -0 0 0 -0 -0 -0 -0 -0 -0 -0 -0 -0 0 -0 0 0 0 0 0 0 0 0 0 0 0 0 0
0 0 0 0 0 0 0 0 0 0 0 0 0 0 0 0 0 -0 0 -0 -0 -0 -0 0 0 -0 -0 -0 -0 -0 -0 -0 -0 -0 -0 -0 0 0 0 0 0 0 0 0 0 0 0 0 0
0 0 0 0 0 0 -0 0 0 0 0 0 0 0 0 0 0 0 0 -0 -0 -0 0 -0 0 0 0 0 -0 -0 -0 -0 -0 -0 -0 -0 0 0 0 0 0 0 0 0 0 0 0 0 0
0 0 0 0 0 0 0 0 0 0 0 0 0 0 0 0 0 0 0 -0 -0 0 0 -0 0 0 0 0 -0 -0 -0 -0 -0 -0 -0 -0 0 0 0 0 0 0 0 0 0 0 0 0 0
0 0 0 0 0 -0 0 0 0 0 0 0 0 0 0 0 0 0 0 0 0 0 0 -0 -0 -0 0 0 -0 -0 -0 -0 -0 -0 -0 -0 0 0 0 0 0 0 0 0 0 0 0 0 0
0 0 0 0 0 0 -0 -0 0 0 0 0 0 0 0 0 0 0 0 0 0 0 0 -0 -1 -0 -0 -0 0 -0 -0 -0 -0 -0 -0 -0 0 0 0 0 0 0 0 0 0 0 0 0 0
0 0 0 0 -0 -0 -0 -0 0 0 0 0 0 0 0 0 0 0 0 0 0 0 0 -0 -1 -0 -0 -0 0 0 -0 -0 -0 -0 -0 -0 0 0 0 0 0 0 0 0 0 0 0 0 0
0 0 0 0 0 0 -0 0 0 0 0 0 0 0 0 0 0 0 0 0 0 0 0 0 -0 -0 -0 -0 -0 0 0 -0 -0 -0 -0 -0 0 0 0 0 0 0 0 0 0 0 0 0 0
0 0 0 0 -0 0 0 0 0 0 0 0 0 0 0 0 0 0 0 0 0 0 0 0 -0 -0 -0 0 -0 -0 0 -0 -0 -0 -0 0 0 0 0 0 0 0 0 0 0 1 0 0 0
0 0 0 0 0 0 -0 -0 -0 -0 0 -0 -0 0 0 0 0 0 0 0 0 0 0 0 0 0 0 0 0 -0 -0 -0 0 0 0 0 0 0 0 0 0 0 0 0 1 1 1 0 0
0 0 0 0 0 0 -0 -0 -0 -0 0 -0 -0 0 0 0 0 0 0 0 0 0 0 0 0 0 0 0 0 0 0 0 0 0 0 0 0 0 0 0 0 0 0 0 1 1 1 0 0
0 0 0 0 0 0 -0 -0 -0 -0 -0 -0 -0 -0 -0 0 0 0 0 0 0 0 0 0 0 0 0 0 0 0 0 0 0 0 0 0 0 0 0 0 0 0 0 0 0 0 0 0 0
0 0 0 0 0 0 0 0 -0 -0 -0 -0 -0 -0 -0 0 0 0 0 0 0 0 0 0 0 0 0 0 0 0 0 0 0 0 0 0 0 0 0 0 0 0 0 0 0 0 0 0 0
0 0 0 0 0 0 0 0 0 -0 -0 -0 -0 -0 -0 -0 -0 0 0 0 0 0 0 0 0 0 0 0 0 0 0 0 0 0 0 0 0 0 0 0 0 0 0 0 0 0 0 0 0
0 0 0 0 0 0 0 0 0 0 -0 -0 -0 -0 -0 -0 -0 0 0 0 0 0 0 0 0 0 0 0 0 0 0 0 0 0 0 0 0 0 0 0 0 0 0 0 0 0 0 0 0
0 0 0 0 0 0 0 0 0 0 0 0 0 -0 -0 0 0 0 0 0 0 0 0 0 1 0 0 0 0 0 0 0 0 0 0 0 0 0 0 0 0 0 0 0 0 0 0 0 0
0 0 0 0 0 0 0 0 0 0 0 0 0 0 0 0 0 0 0 0 0 0 0 0 1 1 0 0 0 0 0 0 0 0 0 0 0 0 0 0 0 0 0 0 0 0 0 0 0
0 0 0 0 0 0 0 0 0 0 0 0 0 0 0 0 0 0 0 0 0 0 0 0 1 1 1 0 0 0 0 0 0 0 0 0 0 0 0 0 0 0 0 0 0 0 0 0 0
0 0 0 0 0 0 0 0 -0 0 0 0 0 0 0 0 0 0 0 0 0 0 0 0 0 1 1 0 0 0 0 0 0 0 0 0 0 0 0 0 0 0 0 0 0 0 0 0 0
0 0 0 0 0 0 0 -0 -0 -0 0 0 0 0 -0 -0 0 0 0 0 0 0 0 0 0 0 0 1 1 1 1 0 0 1 0 0 1 0 0 0 0 0 0 0 0 0 0 0 0
0 0 -0 -0 -0 -0 -0 -0 -0 -0 0 0 0 0 0 -0 -0 0 0 0 0 0 0 0 0 0 0 0 1 0 0 0 1 1 1 1 1 1 1 0 0 0 0 0 0 0 0 0 0
0 0 0 0 0 -0 -0 -0 -0 -0 0 0 0 0 0 0 0 -0 -0 0 0 0 0 0 0 0 0 0 0 1 1 1 1 1 1 1 1 1 1 1 0 0 0 0 0 0 0 0 0
0 0 0 0 0 0 0 -0 -0 0 -0 0 0 0 0 0 0 0 0 0 0 0 0 0 0 0 0 0 0 1 1 1 1 0 1 1 1 1 1 1 1 1 1 1 0 0 0 0 0
0 0 0 0 0 0 -0 -0 -0 -0 -0 0 0 0 0 0 0 0 0 0 0 0 0 0 0 0 0 0 0 0 0 0 0 0 0 0 0 0 1 1 1 1 1 1 0 0 0 0 0
0 0 0 0 0 0 0 0 0 0 0 0 0 0 0 0 0 0 0 0 0 0 0 0 0 0 0 0 0 0 0 1 0 0 0 0 0 1 1 1 1 1 1 1 1 0 0 0 0
0 0 0 0 0 0 0 0 0 -0 0 0 0 -0 0 0 -0 -0 0 0 0 0 0 0 0 0 0 0 0 0 0 1 0 0 0 0 0 1 1 1 1 1 1 1 1 1 0 0 0
0 0 0 0 0 0 0 0 0 0 -0 0 0 0 -0 -0 -0 -0 -0 -0 0 0 0 0 0 0 0 0 0 0 0 0 0 0 0 0 0 1 1 1 1 1 1 1 0 0 0 0 0
0 0 0 0 0 0 0 0 0 0 0 0 0 0 0 -0 -0 -0 -0 -0 -0 0 0 0 0 0 0 0 0 0 0 0 0 0 0 0 0 1 1 1 1 1 1 0 0 0 0 0 0
0 0 0 0 0 0 0 0 0 0 0 0 0 0 0 0 -0 -0 -0 -0 0 0 0 0 0 0 0 0 0 0 0 0 0 0 0 0 1 1 1 1 1 1 1 0 0 0 0 0 0
0 0 0 0 0 0 0 0 0 0 0 0 -0 -0 -0 -0 0 -0 -0 -0 0 0 0 0 0 0 0 0 0 0 0 0 0 0 0 0 1 1 1 1 1 1 0 0 0 0 0 0 0
Wind_Speed_500mb
6 6 6 2 7 9 6 12 2 12 12 5 35 13 16 22 14 11 15 50 63 68 70 71 66 63 60 56 54 53 51 50 49 48 45 42 38 36 33 30 27 24 23 21 19 18 17 15 14
5 4 5 6 7 1 10 7 7 9 15 43 36 14 11 23 61 41 31 69 71 73 74 76 73 70 67 64 61 59 57 54 51 47 43 40 36 33 31 28 24 21 19 17 15 14 13 13 12
2 9 6 7 6 11 9 10 11 10 33 16 13 49 15 9 21 36 30 84 81 77 77 77 77 75 73 68 64 60 57 53 48 45 41 37 33 29 26 24 21 18 16 15 15 12 11 11 8
5 4 7 8 17 9 7 5 11 16 14 14 24 20 22 18 11 42 47 80 83 78 78 78 79 77 75 71 66 61 56 51 46 42 38 33 30 27 22 20 18 15 14 11 10 11 9 8 5
8 3 3 4 12 6 7 14 20 11 19 36 32 14 27 23 13 28 66 82 86 83 81 81 80 77 76 71 66 62 57 52 46 41 37 33 29 25 22 19 17 16 13 11 10 10 9 7 6
7 3 5 9 16 4 6 19 17 3 17 32 33 34 17 70 24 35 85 84 85 84 82 80 79 76 74 71 67 63 57 51 45 41 37 33 30 26 23 21 20 18 16 15 14 13 10 9 7
10 6 9 9 13 5 6 3 6 5 13 14 38 8 33 79 31 15 84 84 88 83 85 82 81 77 72 71 68 63 58 51 46 41 37 33 30 27 25 25 24 22 20 20 19 20 17 15 11
7 6 6 9 23 9 7 9 17 18 11 30 28 11 27 67 35 22 82 86 89 87 84 82 82 80 76 72 68 64 59 53 48 43 38 34 31 30 29 28 27 26 26 25 26 26 24 22 18
10 3 11 25 8 8 13 9 7 13 25 33 9 16 45 63 35 22 68 77 89 91 88 85 82 80 76 72 69 66 61 56 51 46 41 37 36 33 32 29 28 30 29 30 32 32 30 29 26
10 7 15 3 8 14 28 10 24 13 37 18 24 43 49 52 31 18 51 68 83 90 89 88 86 82 79 74 69 67 64 61 57 51 48 42 38 37 35 34 34 34 32 35 36 38 36 36 33
6 7 7 1 3 16 17 12 22 11 25 5 42 54 53 36 27 33 30 61 84 89 92 92 87 82 80 76 72 69 67 64 58 54 52 45 41 42 42 40 39 36 35 37 40 41 40 40 38
4 9 7 8 19 21 10 27 25 37 37 40 32 48 41 40 37 29 25 35 70 83 85 87 86 85 81 77 72 70 68 65 59 58 55 51 47 46 47 44 42 39 37 37 39 41 41 42 41
5 3 8 11 16 29 38 33 40 53 42 36 25 38 41 39 32 28 27 34 30 62 77 86 83 84 87 83 78 74 73 68 61 57 57 56 51 50 49 45 43 40 38 35 34 37 39 39 38
2 7 17 13 16 16 16 26 38 56 13 47 51 49 42 38 37 35 25 29 39 35 64 84 93 88 90 83 82 84 78 70 67 62 60 60 54 53 52 48 45 39 35 28 27 32 34 34 34
8 8 12 17 27 17 34 24 36 52 33 41 13 18 19 20 24 25 28 33 44 40 34 66 76 88 90 92 92 92 85 78 71 67 66 62 60 56 53 48 45 35 29 28 28 31 33 32 31
5 8 6 9 3 12 23 21 3 10 11 22 21 15 26 28 30 23 22 33 27 38 41 34 55 73 84 98 95 91 90 85 77 73 69 63 63 59 52 50 44 32 29 33 33 33 35 32 30
10 1 3 14 7 9 6 7 5 35 21 30 28 26 25 32 29 27 22 21 29 32 42 44 47 52 73 80 90 95 91 95 82 77 72 60 50 62 51 52 43 34 32 34 38 37 38 34 31
6 5 6 8 10 10 10 12 11 33 25 25 31 36 25 24 26 24 24 21 21 26 40 51 56 53 49 60 83 89 94 92 81 70 60 47 59 61 55 52 43 39 36 36 40 41 39 38 30
5 6 7 8 6 12 16 21 16 23 24 19 26 26 29 27 29 32 34 31 28 24 29 37 50 59 62 59 61 73 91 88 84 76 65 56 55 63 66 51 44 44 41 38 41 43 40 41 32
9 6 7 9 11 11 22 43 23 14 16 20 11 27 26 38 44 47 43 44 38 38 33 32 40 53 62 71 69 67 71 90 82 76 46 62 58 87 61 54 46 47 45 43 43 43 42 41 36
5 7 6 9 6 8 10 19 14 3 5 11 26 18 42 57 47 38 44 48 41 41 44 42 35 43 61 73 72 79 76 84 88 81 82 90 99 79 68 49 50 53 47 48 43 42 43 39 34
5 6 4 6 10 7 9 13 13 12 11 7 31 46 33 33 49 52 44 47 49 49 44 50 46 44 46 70 72 79 87 88 89 79 78 73 78 73 56 50 56 56 52 52 43 39 41 40 35
9 2 3 5 5 2 7 6 12 8 10 11 17 29 40 40 38 40 47 52 51 51 52 52 56 56 52 45 74 88 92 96 91 89 91 96 95 80 58 52 61 62 55 51 45 42 41 42 40
2 8 10 6 3 4 10 7 7 5 11 10 11 38 40 36 44 49 52 57 57 55 54 51 55 63 58 53 55 79 95 102 102 109 108 94 83 62 47 58 61 58 55 50 46 41 40 40 39
13 12 8 10 6 9 1 10 17 15 28 14 16 34 36 39 49 58 65 72 72 71 62 57 55 64 65 61 53 67 80 93 96 85 91 87 80 57 62 63 58 54 51 49 46 42 42 39 37
7 12 9 9 6 9 6 14 13 13 22 34 26 38 35 46 57 69 77 82 80 77 63 61 64 65 70 71 62 61 81 80 85 83 86 85 72 65 65 57 51 46 42 44 42 41 38 35 32
5 7 8 3 4 3 10 14 22 24 13 14 23 34 50 54 65 70 69 75 81 76 55 59 63 73 76 79 70 61 72 81 84 90 85 74 68 67 66 51 45 40 41 39 42 42 42 38 34
11 10 3 5 4 9 8 12 20 27 19 15 14 35 63 68 64 56 67 73 74 71 57 60 56 68 78 83 73 68 72 66 78 81 77 76 66 70 64 51 44 43 41 43 39 44 39 35 35
3 3 7 5 8 7 8 12 12 13 11 13 16 41 50 59 48 52 66 73 77 61 52 74 59 60 63 80 77 70 62 64 71 72 74 68 64 59 49 52 45 46 48 47 39 40 35 36 31
9 13 12 8 10 8 7 28 13 19 11 14 29 48 57 37 39 48 58 72 81 70 57 59 58 57 42 57 75 74 69 70 77 74 64 59 54 46 48 50 48 51 54 43 45 37 40 40 35
Wind_Direction_500mb
18 319 159 128 55 62 253 256 228 314 328 284 301 243 225 212 177 214 248 185 180 175 171 168 164 164 164 163 160 159 158 157 155 152 148 145 142 139 135 132 130 127 121 119 115 110 108 108 107
319 172 152 104 96 152 262 247 198 230 286 308 299 267 240 247 229 248 255 171 177 173 170 167 165 162 161 161 159 158 156 157 158 156 155 152 150 148 143 140 138 135 131 127 123 121 120 117 106
244 148 159 103 133 212 220 217 180 264 313 283 292 316 271 253 232 215 204 170 175 174 170 167 166 165 162 163 162 162 161 163 163 162 161 161 158 156 154 151 152 153 152 151 147 147 138 123 114
260 183 82 110 240 256 221 231 248 317 333 324 317 299 309 287 277 210 189 172 174 176 172 169 167 169 166 166 167 167 168 169 169 170 169 171 169 167 170 170 173 176 176 174 170 165 157 138 135
236 202 89 223 248 222 253 264 295 322 295 307 334 288 297 330 308 208 183 175 177 178 175 172 170 173 169 171 172 173 175 175 177 178 181 182 182 182 185 192 197 202 201 209 212 203 189 175 174
192 137 92 243 246 140 270 252 271 218 296 311 342 328 357 352 322 190 177 178 181 179 177 175 175 177 175 176 177 179 181 182 185 186 191 194 195 195 200 207 217 221 225 232 239 243 234 226 218
173 126 211 243 269 353 267 256 265 324 294 318 338 352 342 356 339 231 181 183 183 185 180 179 180 181 182 182 183 185 188 190 193 197 200 203 207 212 215 221 226 234 242 248 248 254 256 255 251
186 120 215 232 259 270 265 324 320 294 289 324 359 2 347 349 333 251 191 187 185 188 187 185 185 185 188 189 189 191 195 199 202 205 208 213 220 225 229 233 236 241 248 257 260 258 260 264 263
180 182 218 235 186 222 268 9 343 313 291 319 310 336 350 349 335 238 196 189 189 191 191 191 191 191 192 195 195 197 202 206 210 214 217 221 229 235 239 246 248 252 256 264 267 267 265 266 265
180 210 217 230 220 271 286 298 314 336 310 312 323 318 338 348 340 263 210 201 197 198 196 195 197 197 199 200 202 205 207 210 214 219 223 227 234 241 247 251 252 255 258 264 269 270 270 269 270
200 222 226 75 264 300 312 305 301 320 290 13 329 322 327 336 325 331 255 226 209 203 203 203 201 202 205 206 207 211 215 217 220 224 231 232 238 245 249 254 255 263 266 271 274 277 278 278 276
193 233 224 271 281 290 274 302 276 268 269 291 298 307 312 320 322 322 315 262 226 214 213 209 206 208 212 214 216 218 221 224 225 230 234 238 239 246 251 256 263 268 271 273 277 280 281 279 279
188 254 302 260 259 260 287 282 282 272 293 302 309 311 308 309 316 314 318 288 253 241 226 219 214 214 216 218 218 223 225 227 230 237 239 243 247 252 258 263 267 274 275 276 276 280 282 284 284
272 275 277 258 228 242 234 268 271 277 292 301 307 304 303 305 310 318 310 294 302 293 241 234 225 220 219 222 226 226 226 231 233 238 244 248 252 259 263 266 270 271 273 271 269 272 277 279 276
272 300 305 235 227 215 214 251 252 270 310 291 315 335 325 326 305 303 307 291 286 296 288 244 240 237 228 226 228 231 233 233 238 240 244 250 255 261 265 270 269 270 267 263 259 263 269 273 274
28 44 339 286 152 244 186 241 299 5 337 320 331 351 341 342 348 341 301 275 285 270 272 279 249 244 243 237 238 240 240 239 241 244 249 253 257 260 260 267 269 266 262 264 266 263 266 267 269
3 205 279 312 356 322 168 278 300 334 320 308 310 324 335 336 339 352 328 313 278 265 273 270 279 262 247 239 243 247 249 248 246 247 250 250 260 263 263 267 271 267 266 269 272 268 268 265 265
267 333 313 264 321 13 291 241 274 298 301 291 304 313 324 335 345 337 329 323 301 274 257 261 271 268 262 254 246 243 241 243 242 241 240 242 276 259 260 264 270 269 268 274 277 274 270 265 262
217 208 239 279 308 358 294 289 279 274 281 265 277 305 319 331 333 326 318 309 301 279 273 262 253 262 258 264 256 249 243 239 239 229 239 244 260 267 272 266 269 271 273 280 280 271 268 263 255
202 192 231 281 303 339 306 300 297 235 231 232 262 297 298 313 315 315 312 311 298 288 284 274 255 251 260 262 265 262 256 242 230 234 234 242 248 247 252 262 271 274 274 280 278 271 266 256 247
223 198 223 234 294 265 311 285 306 2 205 252 302 282 299 305 313 315 313 313 307 291 281 281 276 258 246 258 261 257 249 240 236 237 231 242 246 251 259 266 272 273 277 279 271 268 263 258 248
263 200 204 273 18 306 55 282 256 260 278 313 290 295 308 315 314 314 308 306 301 301 293 281 277 275 259 247 250 257 255 243 241 243 252 257 263 253 261 266 270 272 276 268 259 258 255 248 238
227 360 343 301 271 345 271 281 264 323 313 322 287 296 308 309 311 318 323 317 310 307 302 290 281 269 267 259 243 246 247 249 241 248 252 258 262 254 255 259 266 270 269 262 249 246 247 241 240
30 13 2 56 78 7 261 191 263 215 181 279 277 315 314 316 314 316 320 318 313 311 305 298 285 276 266 267 258 244 247 242 245 250 254 257 253 244 246 255 263 268 261 249 243 244 240 237 241
67 50 335 342 7 229 7 311 248 253 283 270 270 296 308 318 327 328 328 328 324 319 308 303 293 274 264 263 264 249 245 245 244 245 247 247 244 239 250 254 263 266 256 237 235 234 234 233 222
217 154 168 247 229 251 11 249 251 228 243 279 252 283 304 319 332 333 331 328 324 319 309 305 298 283 264 261 260 247 238 244 247 247 244 245 239 243 245 255 259 259 242 230 231 232 232 211 215
174 180 197 208 236 13 224 292 299 286 293 292 295 300 299 314 331 332 335 332 326 315 299 312 301 291 273 258 256 253 234 236 244 246 243 242 236 237 244 249 254 246 227 226 232 237 211 212 214
162 170 88 18 275 260 251 249 240 288 284 292 326 312 319 319 324 330 339 337 335 310 292 313 302 288 275 257 252 251 235 234 243 243 234 232 232 237 243 242 245 229 223 226 230 210 203 210 212
154 167 61 137 159 220 314 255 221 251 274 303 312 309 314 316 326 333 336 334 333 324 301 313 305 297 268 254 247 240 225 229 228 223 226 228 234 236 238 238 237 223 222 224 216 203 208 201 210
167 192 152 141 254 226 203 270 241 262 315 328 300 336 331 316 329 333 331 332 335 333 315 329 314 312 278 251 241 228 222 228 225 226 225 228 232 236 235 231 225 221 223 220 202 203 205 201 208
Wind_Speed_850mb
6 6 6 2 7 9 6 12 2 12 12 5 35 13 16 22 14 11 15 50 63 68 70 71 66 63 60 56 54 53 51 50 49 48 45 42 38 36 33 30 27 24 23 21 19 18 17 15 14
5 4 5 6 7 1 10 7 7 9 15 43 36 14 11 23 61 41 31 69 71 73 74 76 73 70 67 64 61 59 57 54 51 47 43 40 36 33 31 28 24 21 19 17 15 14 13 13 12
2 9 6 7 6 11 9 10 11 10 33 16 13 49 15 9 21 36 30 84 81 77 77 77 77 75 73 68 64 60 57 53 48 45 41 37 33 29 26 24 21 18 16 15 15 12 11 11 8
5 4 7 8 17 9 7 5 11 16 14 14 24 20 22 18 11 42 47 80 83 78 78 78 79 77 75 71 66 61 56 51 46 42 38 33 30 27 22 20 18 15 14 11 10 11 9 8 5
8 3 3 4 12 6 7 14 20 11 19 36 32 14 27 23 13 28 66 82 86 83 81 81 80 77 76 71 66 62 57 52 46 41 37 33 29 25 22 19 17 16 13 11 10 10 9 7 6
7 3 5 9 16 4 6 19 17 3 17 32 33 34 17 70 24 35 85 84 85 84 82 80 79 76 74 71 67 63 57 51 45 41 37 33 30 26 23 21 20 18 16 15 14 13 10 9 7
10 6 9 9 13 5 6 3 6 5 13 14 38 8 33 79 31 15 84 84 88 83 85 82 81 77 72 71 68 63 58 51 46 41 37 33 30 27 25 25 24 22 20 20 19 20 17 15 11
7 6 6 9 23 9 7 9 17 18 11 30 28 11 27 67 35 22 82 86 89 87 84 82 82 80 76 72 68 64 59 53 48 43 38 34 31 30 29 28 27 26 26 25 26 26 24 22 18
10 3 11 25 8 8 13 9 7 13 25 33 9 16 45 63 35 22 68 77 89 91 88 85 82 80 76 72 69 66 61 56 51 46 41 37 36 33 32 29 28 30 29 30 32 32 30 29 26
10 7 15 3 8 14 28 10 24 13 37 18 24 43 49 52 31 18 51 68 83 90 89 88 86 82 79 74 69 67 64 61 57 51 48 42 38 37 35 34 34 34 32 35 36 38 36 36 33
6 7 7 1 3 16 17 12 22 11 25 5 42 54 53 36 27 33 30 61 84 89 92 92 87 82 80 76 72 69 67 64 58 54 52 45 41 42 42 40 39 36 35 37 40 41 40 40 38
4 9 7 8 19 21 10 27 25 37 37 40 32 48 41 40 37 29 25 35 70 83 85 87 86 85 81 77 72 70 68 65 59 58 55 51 47 46 47 44 42 39 37 37 39 41 41 42 41
5 3 8 11 16 29 38 33 40 53 42 36 25 38 41 39 32 28 27 34 30 62 77 86 83 84 87 83 78 74 73 68 61 57 57 56 51 50 49 45 43 40 38 35 34 37 39 39 38
2 7 17 13 16 16 16 26 38 56 13 47 51 49 42 38 37 35 25 29 39 35 64 84 93 88 90 83 82 84 78 70 67 62 60 60 54 53 52 48 45 39 35 28 27 32 34 34 34
8 8 12 17 27 17 34 24 36 52 33 41 13 18 19 20 24 25 28 33 44 40 34 66 76 88 90 92 92 92 85 78 71 67 66 62 60 56 53 48 45 35 29 28 28 31 33 32 31
5 8 6 9 3 12 23 21 3 10 11 22 21 15 26 28 30 23 22 33 27 38 41 34 55 73 84 98 95 91 90 85 77 73 69 63 63 59 52 50 44 32 29 33 33 33 35 32 30
10 1 3 14 7 9 6 7 5 35 21 30 28 26 25 32 29 27 22 21 29 32 42 44 47 52 73 80 90 95 91 95 82 77 72 60 50 62 51 52 43 34 32 34 38 37 38 34 31
6 5 6 8 10 10 10 12 11 33 25 25 31 36 25 24 26 24 24 21 21 26 40 51 56 53 49 60 83 89 94 92 81 70 60 47 59 61 55 52 43 39 36 36 40 41 39 38 30
5 6 7 8 6 12 16 21 16 23 24 19 26 26 29 27 29 32 34 31 28 24 29 37 50 59 62 59 61 73 91 88 84 76 65 56 55 63 66 51 44 44 41 38 41 43 40 41 32
9 6 7 9 11 11 22 43 23 14 16 20 11 27 26 38 44 47 43 44 38 38 33 32 40 53 62 71 69 67 71 90 82 76 46 62 58 87 61 54 46 47 45 43 43 43 42 41 36
5 7 6 9 6 8 10 19 14 3 5 11 26 18 42 57 47 38 44 48 41 41 44 42 35 43 61 73 72 79 76 84 88 81 82 90 99 79 68 49 50 53 47 48 43 42 43 39 34
5 6 4 6 10 7 9 13 13 12 11 7 31 46 33 33 49 52 44 47 49 49 44 50 46 44 46 70 72 79 87 88 89 79 78 73 78 73 56 50 56 56 52 52 43 39 41 40 35
9 2 3 5 5 2 7 6 12 8 10 11 17 29 40 40 38 40 47 52 51 51 52 52 56 56 52 45 74 88 92 96 91 89 91 96 95 80 58 52 61 62 55 51 45 42 41 42 40
2 8 10 6 3 4 10 7 7 5 11 10 11 38 40 36 44 49 52 57 57 55 54 51 55 63 58 53 55 79 95 102 102 109 108 94 83 62 47 58 61 58 55 50 46 41 40 40 39
13 12 8 10 6 9 1 10 17 15 28 14 16 34 36 39 49 58 65 72 72 71 62 57 55 64 65 61 53 67 80 93 96 85 91 87 80 57 62 63 58 54 51 49 46 42 42 39 37
7 12 9 9 6 9 6 14 13 13 22 34 26 38 35 46 57 69 77 82 80 77 63 61 64 65 70 71 62 61 81 80 85 83 86 85 72 65 65 57 51 46 42 44 42 41 38 35 32
5 7 8 3 4 3 10 14 22 24 13 14 23 34 50 54 65 70 69 75 81 76 55 59 63 73 76 79 70 61 72 81 84 90 85 74 68 67 66 51 45 40 41 39 42 42 42 38 34
11 10 3 5 4 9 8 12 20 27 19 15 14 35 63 68 64 56 67 73 74 71 57 60 56 68 78 83 73 68 72 66 78 81 77 76 66 70 64 51 44 43 41 43 39 44 39 35 35
3 3 7 5 8 7 8 12 12 13 11 13 16 41 50 59 48 52 66 73 77 61 52 74 59 60 63 80 77 70 62 64 71 72 74 68 64 59 49 52 45 46 48 47 39 40 35 36 31
9 13 12 8 10 8 7 28 13 19 11 14 29 48 57 37 39 48 58 72 81 70 57 59 58 57 42 57 75 74 69 70 77 74 64 59 54 46 48 50 48 51 54 43 45 37 40 40 35
Wind_Direction_850mb
18 319 159 128 55 62 253 256 228 314 328 284 301 243 225 212 177 214 248 185 180 175 171 168 164 164 164 163 160 159 158 157 155 152 148 145 142 139 135 132 130 127 121 119 115 110 108 108 107
319 172 152 104 96 152 262 247 198 230 286 308 299 267 240 247 229 248 255 171 177 173 170 167 165 162 161 161 159 158 156 157 158 156 155 152 150 148 143 140 138 135 131 127 123 121 120 117 106
244 148 159 103 133 212 220 217 180 264 313 283 292 316 271 253 232 215 204 170 175 174 170 167 166 165 162 163 162 162 161 163 163 162 161 161 158 156 154 151 152 153 152 151 147 147 138 123 114
260 183 82 110 240 256 221 231 248 317 333 324 317 299 309 287 277 210 189 172 174 176 172 169 167 169 166 166 167 167 168 169 169 170 169 171 169 167 170 170 173 176 176 174 170 165 157 138 135
236 202 89 223 248 222 253 264 295 322 295 307 334 288 297 330 308 208 183 175 177 178 175 172 170 173 169 171 172 173 175 175 177 178 181 182 182 182 185 192 197 202 201 209 212 203 189 175 174
192 137 92 243 246 140 270 252 271 218 296 311 342 328 357 352 322 190 177 178 181 179 177 175 175 177 175 176 177 179 181 182 185 186 191 194 195 195 200 207 217 221 225 232 239 243 234 226 218
173 126 211 243 269 353 267 256 265 324 294 318 338 352 342 356 339 231 181 183 183 185 180 179 180 181 182 182 183 185 188 190 193 197 200 203 207 212 215 221 226 234 242 248 248 254 256 255 251
186 120 215 232 259 270 265 324 320 294 289 324 359 2 347 349 333 251 191 187 185 188 187 185 185 185 188 189 189 191 195 199 202 205 208 213 220 225 229 233 236 241 248 257 260 258 260 264 263
180 182 218 235 186 222 268 9 343 313 291 319 310 336 350 349 335 238 196 189 189 191 191 191 191 191 192 195 195 197 202 206 210 214 217 221 229 235 239 246 248 252 256 264 267 267 265 266 265
180 210 217 230 220 271 286 298 314 336 310 312 323 318 338 348 340 263 210 201 197 198 196 195 197 197 199 200 202 205 207 210 214 219 223 227 234 241 247 251 252 255 258 264 269 270 270 269 270
200 222 226 75 264 300 312 305 301 320 290 13 329 322 327 336 325 331 255 226 209 203 203 203 201 202 205 206 207 211 215 217 220 224 231 232 238 245 249 254 255 263 266 271 274 277 278 278 276
193 233 224 271 281 290 274 302 276 268 269 291 298 307 312 320 322 322 315 262 226 214 213 209 206 208 212 214 216 218 221 224 225 230 234 238 239 246 251 256 263 268 271 273 277 280 281 279 279
188 254 302 260 259 260 287 282 282 272 293 302 309 311 308 309 316 314 318 288 253 241 226 219 214 214 216 218 218 223 225 227 230 237 239 243 247 252 258 263 267 274 275 276 276 280 282 284 284
272 275 277 258 228 242 234 268 271 277 292 301 307 304 303 305 310 318 310 294 302 293 241 234 225 220 219 222 226 226 226 231 233 238 244 248 252 259 263 266 270 271 273 271 269 272 277 279 276
272 300 305 235 227 215 214 251 252 270 310 291 315 335 325 326 305 303 307 291 286 296 288 244 240 237 228 226 228 231 233 233 238 240 244 250 255 261 265 270 269 270 267 263 259 263 269 273 274
28 44 339 286 152 244 186 241 299 5 337 320 331 351 341 342 348 341 301 275 285 270 272 279 249 244 243 237 238 240 240 239 241 244 249 253 257 260 260 267 269 266 262 264 266 263 266 267 269
3 205 279 312 356 322 168 278 300 334 320 308 310 324 335 336 339 352 328 313 278 265 273 270 279 262 247 239 243 247 249 248 246 247 250 250 260 263 263 267 271 267 266 269 272 268 268 265 265
267 333 313 264 321 13 291 241 274 298 301 291 304 313 324 335 345 337 329 323 301 274 257 261 271 268 262 254 246 243 241 243 242 241 240 242 276 259 260 264 270 269 268 274 277 274 270 265 262
217 208 239 279 308 358 294 289 279 274 281 265 277 305 319 331 333 326 318 309 301 279 273 262 253 262 258 264 256 249 243 239 239 229 239 244 260 267 272 266 269 271 273 280 280 271 268 263 255
202 192 231 281 303 339 306 300 297 235 231 232 262 297 298 313 315 315 312 311 298 288 284 274 255 251 260 262 265 262 256 242 230 234 234 242 248 247 252 262 271 274 274 280 278 271 266 256 247
223 198 223 234 294 265 311 285 306 2 205 252 302 282 299 305 313 315 313 313 307 291 281 281 276 258 246 258 261 257 249 240 236 237 231 242 246 251 259 266 272 273 277 279 271 268 263 258 248
263 200 204 273 18 306 55 282 256 260 278 313 290 295 308 315 314 314 308 306 301 301 293 281 277 275 259 247 250 257 255 243 241 243 252 257 263 253 261 266 270 272 276 268 259 258 255 248 238
227 360 343 301 271 345 271 281 264 323 313 322 287 296 308 309 311 318 323 317 310 307 302 290 281 269 267 259 243 246 247 249 241 248 252 258 262 254 255 259 266 270 269 262 249 246 247 241 240
30 13 2 56 78 7 261 191 263 215 181 279 277 315 314 316 314 316 320 318 313 311 305 298 285 276 266 267 258 244 247 242 245 250 254 257 253 244 246 255 263 268 261 249 243 244 240 237 241
67 50 335 342 7 229 7 311 248 253 283 270 270 296 308 318 327 328 328 328 324 319 308 303 293 274 264 263 264 249 245 245 244 245 247 247 244 239 250 254 263 266 256 237 235 234 234 233 222
217 154 168 247 229 251 11 249 251 228 243 279 252 283 304 319 332 333 331 328 324 319 309 305 298 283 264 261 260 247 238 244 247 247 244 245 239 243 245 255 259 259 242 230 231 232 232 211 215
174 180 197 208 236 13 224 292 299 286 293 292 295 300 299 314 331 332 335 332 326 315 299 312 301 291 273 258 256 253 234 236 244 246 243 242 236 237 244 249 254 246 227 226 232 237 211 212 214
162 170 88 18 275 260 251 249 240 288 284 292 326 312 319 319 324 330 339 337 335 310 292 313 302 288 275 257 252 251 235 234 243 243 234 232 232 237 243 242 245 229 223 226 230 210 203 210 212
154 167 61 137 159 220 314 255 221 251 274 303 312 309 314 316 326 333 336 334 333 324 301 313 305 297 268 254 247 240 225 229 228 223 226 228 234 236 238 238 237 223 222 224 216 203 208 201 210
167 192 152 141 254 226 203 270 241 262 315 328 300 336 331 316 329 333 331 332 335 333 315 329 314 312 278 251 241 228 222 228 225 226 225 228 232 236 235 231 225 221 223 220 202 203 205 201 208